Location: Port Townsend
(48.1170°N, 122.7590°W)
Time: 14:51:47
(UTC-07:00)

Envisat - Visible Passes

Search period start: 21 March 2019 00:00
Search period end: 31 March 2019 00:00
Orbit: 764 x 766 km, 98.2° (Epoch: 21 March)

Date Brightness Start Highest point End Pass type
(mag) Time Alt. Az. Time Alt. Az. Time Alt. Az.
21 Mar 5.1 20:38:56 10° SSW 20:43:18 28° W 20:47:42 10° NW visible
22 Mar 3.8 20:01:21 10° S 20:06:20 58° W 20:11:22 10° NNW visible
23 Mar 5.8 21:05:47 10° SW 21:09:06 17° W 21:12:27 10° NW visible
24 Mar 4.8 20:27:22 10° SSW 20:32:00 35° W 20:36:39 10° NNW visible
26 Mar 5.6 20:53:55 10° SW 20:57:46 21° W 21:01:38 10° NW visible
27 Mar 4.4 20:15:54 10° S 20:20:43 43° W 20:25:34 10° NNW visible
28 Mar 6.0 21:21:25 10° WSW 21:23:38 13° W 21:25:52 10° WNW visible
29 Mar 5.3 20:42:13 10° SSW 20:46:26 26° W 20:50:42 10° NW visible
30 Mar 4.0 20:04:30 10° S 20:09:27 53° W 20:14:27 10° NNW visible
